STARLINK-31989, 59959

Orbit data source: Space-Track

STARLINK-31989, 59959 is a payload satellite owned by SpaceX/Seattle (US) in LEO that was launched on Wed, 05 Jun 2024 UTC via an FALCON 9 launch vehicle from the Air Force Eastern Test Range (AFETR). Payload-class satellites include a variety of spacecraft equipped with specific instruments for various scientific and technological missions. These include communications satellites like Starlink; space stations such as the ISS; scientific satellites like the Hubble; Earth observation satellites from companies like Planet Labs, Umbra, and HawkEye 360; GPS; miniature CubeSats for education and research; and military/defense satellites.

Loading next visibility...
Identifier
59959, 2024-107Q
Orbit
LEO
Country
Flag of USUS
Related business
Manufacturer
SpaceX/Seattle
Mission
Operational spacecraft
Bus & Motor
STARLINK V2M, Unknown motor
Mass
730 kg wet, ~700 kg dry
Launch date (UTC)
2024-06-05 (1 year ago)
Launch vehicle
FALCON 9
Launch site
Air Force Eastern Test Range (AFETR)
Object type
Payload
Rocket body
Debris
Shape & HBR
Unknown
Radar Cross Section
Large (>1 m²)

Expand to show TLE details & history
Last TLE update: 22 hours ago

TLE from 22 hours ago
0 STARLINK-31989
1 59959U 24107Q   25260.96794501  .00003679  00000-0  13623-3 0  9990
2 59959  53.1603 147.6966 0001002  84.5653 275.5463 15.30210905 73356
Epoch: 2025-09-17T23:13Z
TLE epoch observation values (Epoch: 2025-09-17T23:13:50.448Z)
Latitude
0.00004°
Longitude
162.10014°
Altitude
476.016 km
Speed
7.629 km/s
True Right ascension
09h 50m 47s
True Declination
0° 00' 00"
Sunlit
Object was in daylight at epoch
Visualization orbit readout
Latitude
Unknown
Longitude
Unknown
Altitude
Unknown
Speed
Unknown
Apparent Right ascension
Unknown
Apparent Declination
Unknown
Sunlit
N/A
Visualization observer readout
Local Sidereal Time
13:53:34
Azimuth
Unknown
Elevation
Unknown
Doppler factor
Unknown
Orbital elements
Apogee altitude
476.126 km
Perigee altitude
474.752 km
Semi-major axis
6,853.576 km
Eccentricity
0.0001
Inclination
53.1603°
RAAN
147.6966°
Arg. of periapsis
84.5653°
True anomaly
275.53487°
Mean anomaly
275.5463°
Eccentric anomaly
275.54059°
Mean motion
3.82532 °/min
Orbital period
94.11 mins
BSTAR
0.00013623
Loading maneuver chart data...
Computing Atmospheric mass density...
Loading historical data...
Loading historical data...
Loading historical data...
Loading historical data...
Loading historical data...
Loading historical data...
Loading historical data...

Documentation

Showing up to 5 results
|